TimePST,TemperatureF,Dew PointF,Humidity,Sea Level PressureIn,VisibilityMPH,Wind Direction,Wind SpeedMPH,Gust SpeedMPH,PrecipitationIn,Events,Conditions,WindDirDegrees,DateUTC
12:53 AM,57.0,42.1,57,30.01,10.0,Calm,Calm,-,N/A,,Clear,0,2012-03-10 08:53:00
1:53 AM,55.9,37.0,49,30.01,10.0,Calm,Calm,-,N/A,,Clear,0,2012-03-10 09:53:00
2:53 AM,53.1,30.0,41,29.99,10.0,Calm,Calm,-,N/A,,Clear,0,2012-03-10 10:53:00
3:53 AM,51.8,33.8,50,29.98,10.0,Calm,Calm,-,N/A,,Clear,0,2012-03-10 11:53:00
4:53 AM,51.1,32.0,48,29.99,10.0,Calm,Calm,-,N/A,,Clear,0,2012-03-10 12:53:00
5:53 AM,50.0,34.0,54,29.99,10.0,Calm,Calm,-,N/A,,Clear,0,2012-03-10 13:53:00
6:53 AM,52.0,33.1,49,29.99,10.0,Variable,3.5,-,N/A,,Clear,0,2012-03-10 14:53:00
7:53 AM,57.9,36.0,44,30.02,10.0,Calm,Calm,-,N/A,,Clear,0,2012-03-10 15:53:00
8:53 AM,64.0,37.0,37,30.02,10.0,Calm,Calm,-,N/A,,Clear,0,2012-03-10 16:53:00
9:53 AM,66.9,41.0,39,30.03,10.0,SW,8.1,-,N/A,,Partly Cloudy,220,2012-03-10 17:53:00
10:53 AM,69.1,41.0,36,30.02,10.0,SW,8.1,-,N/A,,Partly Cloudy,230,2012-03-10 18:53:00
11:53 AM,72.0,39.9,31,29.99,10.0,SW,9.2,-,N/A,,Scattered Clouds,230,2012-03-10 19:53:00
12:53 PM,73.9,30.9,21,29.97,10.0,SW,12.7,-,N/A,,Mostly Cloudy,230,2012-03-10 20:53:00
1:53 PM,70.0,43.0,38,29.96,10.0,South,12.7,-,N/A,,Mostly Cloudy,190,2012-03-10 21:53:00
2:53 PM,66.0,51.1,59,29.96,10.0,SW,13.8,-,N/A,,Mostly Cloudy,230,2012-03-10 22:53:00
3:53 PM,64.0,53.1,67,29.96,10.0,SSW,12.7,-,N/A,,Scattered Clouds,200,2012-03-10 23:53:00
4:53 PM,62.1,45.0,53,29.96,10.0,SSW,10.4,-,N/A,,Scattered Clouds,200,2012-03-11 00:53:00
5:53 PM,60.1,44.1,55,29.97,10.0,SSW,5.8,-,N/A,,Mostly Cloudy,200,2012-03-11 01:53:00
6:53 PM,57.9,48.9,72,29.99,10.0,SSW,6.9,-,N/A,,Partly Cloudy,200,2012-03-11 02:53:00
7:53 PM,55.9,48.0,75,30.01,10.0,SSW,3.5,-,N/A,,Scattered Clouds,200,2012-03-11 03:53:00
8:53 PM,57.0,48.0,72,30.03,10.0,Calm,Calm,-,N/A,,Partly Cloudy,0,2012-03-11 04:53:00
9:53 PM,55.9,48.9,77,30.03,8.0,ESE,4.6,-,N/A,,Scattered Clouds,120,2012-03-11 05:53:00
10:11 PM,55.4,48.2,77,30.03,6.0,Variable,5.8,-,N/A,,Mostly Cloudy,0,2012-03-11 06:11:00
10:53 PM,55.9,48.9,77,30.03,6.0,SE,5.8,-,N/A,,Mostly Cloudy,130,2012-03-11 06:53:00
11:50 PM,55.4,48.2,77,30.02,10.0,ESE,3.5,-,N/A,,Overcast,120,2012-03-11 07:50:00
11:53 PM,55.9,48.9,77,30.03,10.0,Calm,Calm,-,N/A,,Overcast,0,2012-03-11 07:53:00